User: anonymous   Login
Location: Franzen
(48.6167°N, 15.3833°E)
Time: 05:11:15
(UTC+00:00)
Language:

Cosmos 2279 Rocket - Orbit

View from above orbital plane
View from above orbital plane
View from above satellite
View from above satellite

Ground track
Ground track

The orbit data is extracted from the following two-line orbital elements,

1 23093U 94024B   21171.33482471  .00000011  00000-0 -37773-5 0  9995
2 23093  82.9465 105.3595 0009153 214.3265 145.7302 13.77857615833042
Epoch (UTC): 20 June 2021 08:02:08
Eccentricity: 0.0009153
inclination: 82.9465°
perigee height: 965 km
apogee height: 978 km
right ascension of ascending node: 105.3595°
argument of perigee: 214.3265°
revolutions per day: 13.77857615
mean anomaly at epoch: 145.7302°
orbit number at epoch: 83304

The dashed part of the orbit path shows where the satellite is in the earth's shadow,  

DLR